W4TL Weather Reports


time (UTC)temp
C
wind
direction
speed
KPH
gust
KPH
rain 1hr
cm
rain 24hr
cm
rain mn
cm
humidity
%
barometer
mb
20260504110118 3 0 0.0 1.6 0.00 0.00 0.00 97 1019.0
20260504090117 4 0 0.0 0.0 0.00 0.00 0.00 97 1018.7
20260504081548 5 244 0.0 0.0 0.00 0.00 0.00 96 1018.6
20260504044600 7 0 0.0 0.0 0.00 0.00 0.00 92 1018.9
20260504043051 7 0 0.0 0.0 0.00 0.00 0.00 90 1019.0
20260504041553 7 0 0.0 1.6 0.00 0.00 0.00 90 1019.1
20260504040049 7 0 0.0 0.0 0.00 0.00 0.00 89 1019.2
20260504034554 7 0 0.0 1.6 0.00 0.00 0.00 88 1019.1
20260504033054 8 0 0.0 1.6 0.00 0.00 0.00 87 1019.3
20260504031551 8 0 0.0 0.0 0.00 0.00 0.00 86 1019.3
20260504030048 8 0 0.0 0.0 0.00 0.00 0.00 84 1019.1
20260504024550 9 0 0.0 0.0 0.00 0.00 0.00 82 1019.2
20260504023051 10 0 0.0 0.0 0.00 0.00 0.00 80 1019.2
20260504021553 10 0 0.0 0.0 0.00 0.00 0.00 79 1018.9
20260504020051 10 0 0.0 0.0 0.00 0.00 0.00 77 1018.8
20260504014552 11 0 0.0 0.0 0.00 0.00 0.00 73 1018.5
20260504013052 12 0 0.0 0.0 0.00 0.00 0.00 70 1018.4
20260504011550 12 0 0.0 0.0 0.00 0.00 0.00 67 1018.4
20260504010100 13 0 0.0 0.0 0.00 0.00 0.00 65 1018.2
20260504004553 14 0 0.0 0.0 0.00 0.00 0.00 60 1018.0
20260504003052 15 0 0.0 0.0 0.00 0.00 0.00 56 1017.9
20260504001610 17 0 0.0 1.6 0.00 0.00 0.00 49 1017.7
20260504000052 17 0 0.0 3.2 0.00 0.00 0.00 45 1017.7
20260503234550 18 0 1.6 4.8 0.00 0.00 0.00 42 1017.5
20260503233050 18 279 1.6 8.0 0.00 0.00 0.00 41 1017.5
20260503231550 19 0 0.0 11.3 0.00 0.00 0.00 42 1017.5
20260503230046 20 182 0.0 11.3 0.00 0.00 0.00 38 1017.6
20260503224547 20 334 0.0 8.0 0.00 0.00 0.00 37 1017.7
20260503223050 21 244 1.6 11.3 0.00 0.00 0.00 35 1017.7
20260503221551 21 0 1.6 12.9 0.00 0.00 0.00 36 1017.7
20260503220108 21 237 1.6 8.0 0.00 0.00 0.00 36 1017.6
20260503214547 21 15 1.6 14.5 0.00 0.00 0.00 37 1017.7
20260503213050 21 311 0.0 8.0 0.00 0.00 0.00 38 1017.8
20260503211601 21 49 3.2 12.9 0.00 0.00 0.00 37 1017.9
20260503210056 21 131 3.2 14.5 0.00 0.00 0.00 36 1017.9
20260503204554 21 352 1.6 11.3 0.00 0.00 0.00 39 1018.0
20260503203049 21 168 3.2 9.7 0.00 0.00 0.00 37 1018.2
20260503201549 22 277 0.0 8.0 0.00 0.00 0.00 37 1018.4
20260503200056 22 42 3.2 9.7 0.00 0.00 0.00 38 1018.8
20260503194555 22 246 1.6 11.3 0.00 0.00 0.00 41 1019.1
20260503193113 21 335 1.6 14.5 0.00 0.00 0.00 44 1019.3
20260503191551 21 317 1.6 9.7 0.00 0.00 0.00 41 1019.5
20260503190049 20 34 1.6 9.7 0.00 0.00 0.00 47 1019.7
20260503184557 20 340 1.6 8.0 0.00 0.00 0.00 42 1019.9
20260503183104 20 281 1.6 14.5 0.00 0.00 0.00 42 1020.0
20260503181618 20 191 1.6 9.7 0.00 0.00 0.00 40 1020.2
20260503180124 19 284 3.2 11.3 0.00 0.00 0.00 43 1020.4
20260503174557 19 360 3.2 14.5 0.00 0.00 0.00 39 1020.4
20260503173058 19 148 1.6 11.3 0.00 0.00 0.00 40 1020.6
20260503171549 19 242 1.6 6.4 0.00 0.00 0.00 43 1020.8